| time (UTC) | temp F | wind direction | speed MPH | gust MPH | rain 1hr in | rain 24hr in | rain mn in | humidity % | barometer mb |
| 20260831124355 | 78 | 208 | 0.0 | 3.0 | 0.00 | 0.00 | 0.00 | 69 | 1017.5 |
| 20260831123828 | 76 | 176 | 1.0 | 3.0 | 0.00 | 0.00 | 0.00 | 71 | 1017.4 |
| 20260831123324 | 75 | 164 | 0.0 | 2.0 | 0.00 | 0.00 | 0.00 | 72 | 1017.4 |
| 20260831122817 | 75 | 195 | 0.0 | 0.0 | 0.00 | 0.00 | 0.00 | 72 | 1017.3 |
| 20260831122332 | 75 | 145 | 0.0 | 0.0 | 0.00 | 0.00 | 0.00 | 73 | 1017.2 |
| 20260831121830 | 74 | 155 | 0.0 | 1.0 | 0.00 | 0.00 | 0.00 | 73 | 1017.1 |
| 20260831121345 | 74 | 178 | 0.0 | 0.0 | 0.00 | 0.00 | 0.00 | 73 | 1016.9 |
| 20260831120819 | 74 | 170 | 0.0 | 2.0 | 0.00 | 0.00 | 0.00 | 73 | 1016.9 |
| 20260831120332 | 74 | 157 | 0.0 | 3.0 | 0.00 | 0.00 | 0.00 | 72 | 1016.8 |
| 20260831115828 | 74 | 168 | 0.0 | 3.0 | 0.00 | 0.00 | 0.00 | 72 | 1016.7 |
| 20260831115322 | 74 | 169 | 0.0 | 5.0 | 0.00 | 0.00 | 0.00 | 72 | 1016.7 |
| 20260831114817 | 74 | 184 | 1.0 | 5.0 | 0.00 | 0.00 | 0.00 | 72 | 1016.6 |
| 20260831114331 | 74 | 164 | 0.0 | 2.0 | 0.00 | 0.00 | 0.00 | 72 | 1016.6 |
| 20260831113827 | 74 | 177 | 0.0 | 2.0 | 0.00 | 0.00 | 0.00 | 72 | 1016.5 |
| 20260831113322 | 74 | 191 | 0.0 | 2.0 | 0.00 | 0.00 | 0.00 | 71 | 1016.4 |
| 20260831112816 | 74 | 186 | 0.0 | 4.0 | 0.00 | 0.00 | 0.00 | 71 | 1016.3 |
| 20260831112327 | 74 | 154 | 1.0 | 4.0 | 0.00 | 0.00 | 0.00 | 71 | 1016.4 |
| 20260831111821 | 75 | 160 | 1.0 | 3.0 | 0.00 | 0.00 | 0.00 | 70 | 1016.4 |
| 20260831111336 | 75 | 179 | 1.0 | 3.0 | 0.00 | 0.00 | 0.00 | 70 | 1016.3 |
| 20260831110830 | 75 | 172 | 1.0 | 4.0 | 0.00 | 0.00 | 0.00 | 70 | 1016.3 |
| 20260831110327 | 75 | 83 | 1.0 | 4.0 | 0.00 | 0.00 | 0.00 | 69 | 1016.4 |
| 20260831105826 | 75 | 131 | 2.0 | 4.0 | 0.00 | 0.00 | 0.00 | 69 | 1016.4 |
| 20260831105322 | 75 | 121 | 2.0 | 4.0 | 0.00 | 0.00 | 0.00 | 69 | 1016.3 |
| 20260831104856 | 75 | 172 | 2.0 | 4.0 | 0.00 | 0.00 | 0.00 | 69 | 1016.3 |
| 20260831104350 | 75 | 191 | 2.0 | 6.0 | 0.00 | 0.00 | 0.00 | 69 | 1016.3 |
| 20260831103823 | 75 | 190 | 1.0 | 6.0 | 0.00 | 0.00 | 0.00 | 69 | 1016.2 |
| 20260831103318 | 75 | 146 | 0.0 | 5.0 | 0.00 | 0.00 | 0.00 | 69 | 1016.2 |
| 20260831102833 | 75 | 204 | 1.0 | 5.0 | 0.00 | 0.00 | 0.00 | 70 | 1016.1 |
| 20260831102347 | 74 | 169 | 1.0 | 2.0 | 0.00 | 0.00 | 0.00 | 70 | 1016.0 |
| 20260831101820 | 74 | 156 | 0.0 | 2.0 | 0.00 | 0.00 | 0.00 | 70 | 1016.1 |
| 20260831101318 | 74 | 108 | 0.0 | 2.0 | 0.00 | 0.00 | 0.00 | 70 | 1016.1 |
| 20260831100833 | 74 | 172 | 0.0 | 0.0 | 0.00 | 0.00 | 0.00 | 69 | 1016.1 |
| 20260831100328 | 74 | 172 | 0.0 | 1.0 | 0.00 | 0.00 | 0.00 | 69 | 1016.2 |
| 20260831095824 | 74 | 160 | 0.0 | 1.0 | 0.00 | 0.00 | 0.00 | 69 | 1016.1 |
| 20260831095339 | 74 | 169 | 0.0 | 0.0 | 0.00 | 0.00 | 0.00 | 69 | 1016.1 |
| 20260831094833 | 75 | 179 | 0.0 | 0.0 | 0.00 | 0.00 | 0.00 | 69 | 1016.1 |
| 20260831094327 | 75 | 176 | 0.0 | 0.0 | 0.00 | 0.00 | 0.00 | 69 | 1016.1 |
| 20260831093842 | 75 | 167 | 0.0 | 0.0 | 0.00 | 0.00 | 0.00 | 68 | 1016.1 |
| 20260831093355 | 75 | 218 | 0.0 | 0.0 | 0.00 | 0.00 | 0.00 | 67 | 1016.1 |
| 20260831092827 | 75 | 221 | 0.0 | 2.0 | 0.00 | 0.00 | 0.00 | 67 | 1016.1 |
| 20260831092326 | 76 | 170 | 0.0 | 2.0 | 0.00 | 0.00 | 0.00 | 67 | 1016.1 |
| 20260831091817 | 76 | 170 | 1.0 | 3.0 | 0.00 | 0.00 | 0.00 | 67 | 1015.9 |
| 20260831091332 | 76 | 169 | 1.0 | 3.0 | 0.00 | 0.00 | 0.00 | 67 | 1015.9 |
| 20260831090827 | 76 | 159 | 0.0 | 3.0 | 0.00 | 0.00 | 0.00 | 67 | 1016.0 |
| 20260831090322 | 76 | 122 | 1.0 | 3.0 | 0.00 | 0.00 | 0.00 | 66 | 1015.9 |
| 20260831085817 | 76 | 159 | 1.0 | 4.0 | 0.00 | 0.00 | 0.00 | 66 | 1015.9 |
| 20260831085332 | 76 | 143 | 1.0 | 5.0 | 0.00 | 0.00 | 0.00 | 67 | 1015.8 |
| 20260831084830 | 76 | 152 | 1.0 | 5.0 | 0.00 | 0.00 | 0.00 | 67 | 1015.8 |
| 20260831084325 | 76 | 141 | 0.0 | 2.0 | 0.00 | 0.00 | 0.00 | 67 | 1015.8 |
| 20260831083839 | 76 | 166 | 0.0 | 3.0 | 0.00 | 0.00 | 0.00 | 67 | 1015.8 |
| 20260831083333 | 76 | 183 | 0.0 | 3.0 | 0.00 | 0.00 | 0.00 | 66 | 1015.7 |
| 20260831082829 | 76 | 70 | 0.0 | 3.0 | 0.00 | 0.00 | 0.00 | 66 | 1015.7 |
| 20260831082324 | 77 | 160 | 0.0 | 5.0 | 0.00 | 0.00 | 0.00 | 65 | 1015.7 |
| 20260831081857 | 77 | 115 | 2.0 | 5.0 | 0.00 | 0.00 | 0.00 | 65 | 1015.7 |
| 20260831081331 | 77 | 142 | 1.0 | 4.0 | 0.00 | 0.00 | 0.00 | 65 | 1015.6 |
| 20260831080826 | 77 | 139 | 1.0 | 4.0 | 0.00 | 0.00 | 0.00 | 65 | 1015.5 |
| 20260831080325 | 77 | 135 | 1.0 | 5.0 | 0.00 | 0.00 | 0.00 | 65 | 1015.5 |
| 20260831075820 | 77 | 137 | 2.0 | 6.0 | 0.00 | 0.00 | 0.00 | 65 | 1015.4 |
| 20260831075336 | 77 | 178 | 2.0 | 5.0 | 0.00 | 0.00 | 0.00 | 65 | 1015.5 |
| 20260831074829 | 77 | 159 | 1.0 | 4.0 | 0.00 | 0.00 | 0.00 | 65 | 1015.5 |
| 20260831074323 | 77 | 150 | 1.0 | 5.0 | 0.00 | 0.00 | 0.00 | 65 | 1015.4 |
| 20260831073819 | 77 | 207 | 2.0 | 5.0 | 0.00 | 0.00 | 0.00 | 65 | 1015.5 |
| 20260831073334 | 77 | 169 | 1.0 | 4.0 | 0.00 | 0.00 | 0.00 | 65 | 1015.4 |
| 20260831072830 | 77 | 186 | 2.0 | 5.0 | 0.00 | 0.00 | 0.00 | 66 | 1015.5 |
| 20260831072349 | 77 | 171 | 3.0 | 5.0 | 0.00 | 0.00 | 0.00 | 66 | 1015.4 |
| 20260831071823 | 77 | 163 | 0.0 | 4.0 | 0.00 | 0.00 | 0.00 | 66 | 1015.3 |
| 20260831071317 | 77 | 158 | 0.0 | 6.0 | 0.00 | 0.00 | 0.00 | 66 | 1015.4 |
| 20260831070832 | 78 | 186 | 2.0 | 6.0 | 0.00 | 0.00 | 0.00 | 65 | 1015.5 |
| 20260831070327 | 78 | 162 | 0.0 | 6.0 | 0.00 | 0.00 | 0.00 | 65 | 1015.5 |
| 20260831065821 | 78 | 124 | 2.0 | 6.0 | 0.00 | 0.00 | 0.00 | 65 | 1015.6 |
| 20260831065335 | 78 | 197 | 1.0 | 6.0 | 0.00 | 0.00 | 0.00 | 65 | 1015.6 |
| 20260831064850 | 78 | 195 | 0.0 | 6.0 | 0.00 | 0.00 | 0.00 | 65 | 1015.6 |
| 20260831064328 | 79 | 221 | 2.0 | 8.0 | 0.00 | 0.00 | 0.00 | 65 | 1015.5 |
| 20260831063823 | 79 | 147 | 3.0 | 8.0 | 0.00 | 0.00 | 0.00 | 65 | 1015.5 |
| 20260831063318 | 79 | 168 | 3.0 | 6.0 | 0.00 | 0.00 | 0.00 | 65 | 1015.5 |
| 20260831062833 | 79 | 162 | 2.0 | 6.0 | 0.00 | 0.00 | 0.00 | 65 | 1015.6 |
| 20260831062328 | 79 | 174 | 2.0 | 5.0 | 0.00 | 0.00 | 0.00 | 65 | 1015.5 |
| 20260831061843 | 79 | 150 | 2.0 | 6.0 | 0.00 | 0.00 | 0.00 | 65 | 1015.4 |
| 20260831061317 | 79 | 164 | 2.0 | 6.0 | 0.00 | 0.00 | 0.00 | 65 | 1015.4 |
| 20260831060832 | 79 | 143 | 2.0 | 5.0 | 0.00 | 0.00 | 0.00 | 65 | 1015.5 |
| 20260831060331 | 79 | 120 | 2.0 | 5.0 | 0.00 | 0.00 | 0.00 | 66 | 1015.5 |
| 20260831055826 | 79 | 193 | 2.0 | 7.0 | 0.00 | 0.00 | 0.00 | 66 | 1015.5 |
| 20260831055322 | 79 | 179 | 1.0 | 7.0 | 0.00 | 0.00 | 0.00 | 66 | 1015.5 |
| 20260831054816 | 79 | 159 | 1.0 | 4.0 | 0.00 | 0.00 | 0.00 | 66 | 1015.6 |
| 20260831054330 | 79 | 186 | 1.0 | 4.0 | 0.00 | 0.00 | 0.00 | 66 | 1015.6 |
| 20260831053825 | 79 | 209 | 1.0 | 5.0 | 0.00 | 0.00 | 0.00 | 66 | 1015.5 |
| 20260831053320 | 79 | 178 | 2.0 | 5.0 | 0.00 | 0.00 | 0.00 | 66 | 1015.5 |
| 20260831052819 | 79 | 151 | 1.0 | 3.0 | 0.00 | 0.00 | 0.00 | 65 | 1015.4 |
| 20260831052334 | 79 | 117 | 1.0 | 3.0 | 0.00 | 0.00 | 0.00 | 65 | 1015.4 |
| 20260831051829 | 79 | 168 | 1.0 | 4.0 | 0.00 | 0.00 | 0.00 | 65 | 1015.3 |
| 20260831051324 | 79 | 154 | 0.0 | 3.0 | 0.00 | 0.00 | 0.00 | 65 | 1015.3 |
| 20260831050818 | 80 | 157 | 0.0 | 3.0 | 0.00 | 0.00 | 0.00 | 64 | 1015.3 |
| 20260831050332 | 80 | 165 | 1.0 | 4.0 | 0.00 | 0.00 | 0.00 | 64 | 1015.4 |
| 20260831045828 | 80 | 167 | 1.0 | 4.0 | 0.00 | 0.00 | 0.00 | 64 | 1015.4 |
| 20260831045323 | 80 | 167 | 0.0 | 3.0 | 0.00 | 0.00 | 0.00 | 63 | 1015.3 |
| 20260831044821 | 80 | 165 | 1.0 | 4.0 | 0.00 | 0.00 | 0.00 | 63 | 1015.3 |
| 20260831044316 | 80 | 164 | 1.0 | 3.0 | 0.00 | 0.00 | 0.00 | 63 | 1015.3 |
| 20260831043831 | 80 | 206 | 0.0 | 3.0 | 0.00 | 0.00 | 0.00 | 63 | 1015.2 |
| 20260831043345 | 80 | 183 | 0.0 | 2.0 | 0.00 | 0.00 | 0.00 | 62 | 1015.2 |
| 20260831042818 | 80 | 184 | 0.0 | 2.0 | 0.00 | 0.00 | 0.00 | 62 | 1015.3 |
| 20260831042332 | 81 | 154 | 0.0 | 0.0 | 0.00 | 0.00 | 0.00 | 61 | 1015.2 |
| 20260831041826 | 81 | 162 | 0.0 | 0.0 | 0.00 | 0.00 | 0.00 | 61 | 1015.2 |
| 20260831041341 | 81 | 139 | 0.0 | 2.0 | 0.00 | 0.00 | 0.00 | 60 | 1015.1 |
| 20260831040818 | 81 | 182 | 0.0 | 2.0 | 0.00 | 0.00 | 0.00 | 60 | 1015.1 |
| 20260831040334 | 81 | 193 | 0.0 | 1.0 | 0.00 | 0.00 | 0.00 | 59 | 1015.1 |
| 20260831035829 | 82 | 176 | 0.0 | 3.0 | 0.00 | 0.00 | 0.00 | 59 | 1015.1 |
| 20260831035343 | 82 | 143 | 0.0 | 3.0 | 0.00 | 0.00 | 0.00 | 58 | 1015.0 |
| 20260831034817 | 82 | 177 | 1.0 | 3.0 | 0.00 | 0.00 | 0.00 | 58 | 1015.0 |
| 20260831034332 | 82 | 188 | 0.0 | 3.0 | 0.00 | 0.00 | 0.00 | 58 | 1015.0 |
| 20260831033827 | 82 | 68 | 0.0 | 3.0 | 0.00 | 0.00 | 0.00 | 58 | 1015.0 |
| 20260831033322 | 81 | 64 | 0.0 | 3.0 | 0.00 | 0.00 | 0.00 | 59 | 1014.9 |
| 20260831032821 | 81 | 154 | 0.0 | 3.0 | 0.00 | 0.00 | 0.00 | 59 | 1014.9 |
| 20260831032336 | 81 | 169 | 0.0 | 1.0 | 0.00 | 0.00 | 0.00 | 60 | 1014.9 |
| 20260831031851 | 80 | 189 | 0.0 | 0.0 | 0.00 | 0.00 | 0.00 | 60 | 1014.8 |
| 20260831031325 | 80 | 162 | 0.0 | 0.0 | 0.00 | 0.00 | 0.00 | 60 | 1014.8 |
| 20260831030819 | 80 | 139 | 0.0 | 0.0 | 0.00 | 0.00 | 0.00 | 59 | 1014.7 |
| 20260831030332 | 80 | 193 | 0.0 | 0.0 | 0.00 | 0.00 | 0.00 | 58 | 1014.8 |
| 20260831025827 | 80 | 225 | 0.0 | 0.0 | 0.00 | 0.00 | 0.00 | 58 | 1014.7 |
| 20260831025322 | 80 | 174 | 0.0 | 0.0 | 0.00 | 0.00 | 0.00 | 58 | 1014.7 |
| 20260831024820 | 80 | 144 | 0.0 | 0.0 | 0.00 | 0.00 | 0.00 | 58 | 1014.6 |
| 20260831024335 | 80 | 144 | 0.0 | 0.0 | 0.00 | 0.00 | 0.00 | 57 | 1014.6 |
| 20260831023829 | 80 | 136 | 0.0 | 0.0 | 0.00 | 0.00 | 0.00 | 56 | 1014.5 |
| 20260831023344 | 81 | 84 | 0.0 | 0.0 | 0.00 | 0.00 | 0.00 | 55 | 1014.5 |
| 20260831022838 | 82 | 85 | 0.0 | 0.0 | 0.00 | 0.00 | 0.00 | 55 | 1014.4 |
| 20260831022332 | 82 | 84 | 0.0 | 0.0 | 0.00 | 0.00 | 0.00 | 55 | 1014.3 |
| 20260831021827 | 82 | 89 | 0.0 | 0.0 | 0.00 | 0.00 | 0.00 | 54 | 1014.3 |
| 20260831021321 | 82 | 86 | 0.0 | 3.0 | 0.00 | 0.00 | 0.00 | 55 | 1014.3 |
| 20260831020856 | 81 | 160 | 0.0 | 3.0 | 0.00 | 0.00 | 0.00 | 55 | 1014.3 |
| 20260831020332 | 81 | 205 | 0.0 | 0.0 | 0.00 | 0.00 | 0.00 | 56 | 1014.3 |
| 20260831015846 | 82 | 205 | 0.0 | 0.0 | 0.00 | 0.00 | 0.00 | 55 | 1014.2 |
| 20260831015324 | 82 | 205 | 0.0 | 0.0 | 0.00 | 0.00 | 0.00 | 55 | 1014.2 |
| 20260831014819 | 83 | 205 | 0.0 | 0.0 | 0.00 | 0.00 | 0.00 | 53 | 1014.1 |
| 20260831014334 | 83 | 205 | 0.0 | 0.0 | 0.00 | 0.00 | 0.00 | 53 | 1014.0 |
| 20260831013829 | 83 | 205 | 0.0 | 0.0 | 0.00 | 0.00 | 0.00 | 52 | 1013.9 |
| 20260831013324 | 84 | 168 | 0.0 | 0.0 | 0.00 | 0.00 | 0.00 | 52 | 1013.8 |
| 20260831012819 | 84 | 168 | 0.0 | 0.0 | 0.00 | 0.00 | 0.00 | 51 | 1013.8 |
| 20260831012354 | 85 | 168 | 0.0 | 0.0 | 0.00 | 0.00 | 0.00 | 51 | 1013.7 |
| 20260831011825 | 85 | 167 | 0.0 | 0.0 | 0.00 | 0.00 | 0.00 | 50 | 1013.6 |
| 20260831011324 | 85 | 167 | 0.0 | 0.0 | 0.00 | 0.00 | 0.00 | 50 | 1013.6 |
| 20260831010819 | 86 | 159 | 0.0 | 0.0 | 0.00 | 0.00 | 0.00 | 49 | 1013.4 |
| 20260831010354 | 86 | 158 | 0.0 | 0.0 | 0.00 | 0.00 | 0.00 | 49 | 1013.6 |
| 20260831005848 | 87 | 193 | 0.0 | 0.0 | 0.00 | 0.00 | 0.00 | 48 | 1013.6 |
| 20260831005341 | 87 | 156 | 0.0 | 0.0 | 0.00 | 0.00 | 0.00 | 48 | 1013.7 |
| 20260831004836 | 88 | 156 | 0.0 | 0.0 | 0.00 | 0.00 | 0.00 | 47 | 1013.5 |
| 20260831004351 | 88 | 157 | 0.0 | 0.0 | 0.00 | 0.00 | 0.00 | 46 | 1013.5 |
| 20260831003823 | 89 | 160 | 0.0 | 0.0 | 0.00 | 0.00 | 0.00 | 46 | 1013.6 |
| 20260831003319 | 89 | 187 | 0.0 | 0.0 | 0.00 | 0.00 | 0.00 | 46 | 1013.7 |
| 20260831002833 | 90 | 159 | 0.0 | 0.0 | 0.00 | 0.00 | 0.00 | 45 | 1013.5 |
| 20260831002348 | 90 | 159 | 0.0 | 0.0 | 0.00 | 0.00 | 0.00 | 44 | 1013.6 |
| 20260831001825 | 91 | 160 | 0.0 | 0.0 | 0.00 | 0.00 | 0.00 | 44 | 1013.6 |
| 20260831001320 | 91 | 155 | 0.0 | 0.0 | 0.00 | 0.00 | 0.00 | 43 | 1013.6 |
| 20260831000835 | 92 | 153 | 0.0 | 0.0 | 0.00 | 0.00 | 0.00 | 42 | 1013.6 |
| 20260831000332 | 92 | 164 | 0.0 | 3.0 | 0.00 | 0.00 | 0.00 | 42 | 1013.7 |
| 20260830235825 | 93 | 162 | 1.0 | 3.0 | 0.00 | 0.00 | 0.00 | 41 | 1013.7 |
| 20260830235340 | 93 | 208 | 0.0 | 0.0 | 0.00 | 0.00 | 0.00 | 42 | 1013.6 |
| 20260830234834 | 93 | 179 | 0.0 | 4.0 | 0.00 | 0.00 | 0.00 | 41 | 1013.7 |
| 20260830234348 | 94 | 178 | 0.0 | 4.0 | 0.00 | 0.00 | 0.00 | 40 | 1013.7 |
| 20260830233826 | 94 | 155 | 0.0 | 2.0 | 0.00 | 0.00 | 0.00 | 40 | 1013.7 |
| 20260830233321 | 95 | 193 | 0.0 | 2.0 | 0.00 | 0.00 | 0.00 | 38 | 1013.8 |
| 20260830232835 | 95 | 163 | 0.0 | 6.0 | 0.00 | 0.00 | 0.00 | 38 | 1013.7 |
| 20260830232329 | 95 | 197 | 3.0 | 6.0 | 0.00 | 0.00 | 0.00 | 37 | 1013.8 |
| 20260830231824 | 96 | 154 | 1.0 | 4.0 | 0.00 | 0.00 | 0.00 | 37 | 1013.7 |
| 20260830231319 | 96 | 188 | 1.0 | 4.0 | 0.00 | 0.00 | 0.00 | 36 | 1013.7 |
| 20260830230833 | 96 | 179 | 1.0 | 7.0 | 0.00 | 0.00 | 0.00 | 36 | 1013.7 |
| 20260830230328 | 97 | 164 | 1.0 | 7.0 | 0.00 | 0.00 | 0.00 | 35 | 1013.7 |
| 20260830225827 | 97 | 169 | 1.0 | 5.0 | 0.00 | 0.00 | 0.00 | 36 | 1013.7 |
| 20260830225322 | 97 | 167 | 2.0 | 4.0 | 0.00 | 0.00 | 0.00 | 36 | 1013.8 |
| 20260830224817 | 97 | 176 | 0.0 | 7.0 | 0.00 | 0.00 | 0.00 | 36 | 1013.8 |
| 20260830224332 | 98 | 140 | 3.0 | 7.0 | 0.00 | 0.00 | 0.00 | 35 | 1013.7 |
| 20260830223826 | 98 | 203 | 1.0 | 6.0 | 0.00 | 0.00 | 0.00 | 35 | 1013.8 |
| 20260830223321 | 98 | 175 | 1.0 | 5.0 | 0.00 | 0.00 | 0.00 | 34 | 1013.8 |
| 20260830222816 | 99 | 192 | 2.0 | 5.0 | 0.00 | 0.00 | 0.00 | 35 | 1013.7 |
| 20260830222331 | 100 | 155 | 1.0 | 6.0 | 0.00 | 0.00 | 0.00 | 34 | 1013.8 |
| 20260830221830 | 100 | 164 | 2.0 | 6.0 | 0.00 | 0.00 | 0.00 | 34 | 1013.8 |
| 20260830221325 | 101 | 176 | 0.0 | 8.0 | 0.00 | 0.00 | 0.00 | 34 | 1013.8 |
| 20260830220821 | 101 | 210 | 4.0 | 7.0 | 0.00 | 0.00 | 0.00 | 32 | 1013.9 |
| 20260830220335 | 102 | 266 | 1.0 | 8.0 | 0.00 | 0.00 | 0.00 | 33 | 1013.8 |
| 20260830215850 | 101 | 182 | 2.0 | 8.0 | 0.00 | 0.00 | 0.00 | 34 | 1013.9 |
| 20260830215324 | 102 | 217 | 1.0 | 5.0 | 0.00 | 0.00 | 0.00 | 34 | 1013.8 |
| 20260830214819 | 101 | 183 | 1.0 | 8.0 | 0.00 | 0.00 | 0.00 | 35 | 1013.8 |
| 20260830214318 | 100 | 204 | 3.0 | 8.0 | 0.00 | 0.00 | 0.00 | 35 | 1013.9 |
| 20260830213834 | 100 | 181 | 3.0 | 7.0 | 0.00 | 0.00 | 0.00 | 35 | 1013.9 |
| 20260830213328 | 100 | 224 | 2.0 | 6.0 | 0.00 | 0.00 | 0.00 | 34 | 1014.0 |
| 20260830212823 | 100 | 184 | 1.0 | 6.0 | 0.00 | 0.00 | 0.00 | 35 | 1014.1 |
| 20260830212318 | 100 | 232 | 1.0 | 5.0 | 0.00 | 0.00 | 0.00 | 36 | 1014.0 |
| 20260830211833 | 100 | 188 | 0.0 | 6.0 | 0.00 | 0.00 | 0.00 | 36 | 1014.1 |
| 20260830211326 | 100 | 217 | 0.0 | 6.0 | 0.00 | 0.00 | 0.00 | 36 | 1014.1 |
| 20260830210821 | 100 | 195 | 1.0 | 5.0 | 0.00 | 0.00 | 0.00 | 35 | 1014.1 |
| 20260830210319 | 99 | 206 | 1.0 | 7.0 | 0.00 | 0.00 | 0.00 | 36 | 1014.1 |
| 20260830205834 | 99 | 164 | 2.0 | 7.0 | 0.00 | 0.00 | 0.00 | 35 | 1014.2 |
| 20260830205349 | 100 | 200 | 0.0 | 7.0 | 0.00 | 0.00 | 0.00 | 36 | 1014.3 |
| 20260830204822 | 100 | 176 | 3.0 | 7.0 | 0.00 | 0.00 | 0.00 | 35 | 1014.2 |
| 20260830204316 | 99 | 176 | 3.0 | 8.0 | 0.00 | 0.00 | 0.00 | 36 | 1014.4 |
| 20260830203831 | 99 | 223 | 3.0 | 9.0 | 0.00 | 0.00 | 0.00 | 34 | 1014.4 |
| 20260830203325 | 99 | 214 | 4.0 | 9.0 | 0.00 | 0.00 | 0.00 | 35 | 1014.4 |
| 20260830202820 | 99 | 109 | 3.0 | 7.0 | 0.00 | 0.00 | 0.00 | 36 | 1014.5 |
| 20260830202318 | 99 | 207 | 3.0 | 7.0 | 0.00 | 0.00 | 0.00 | 35 | 1014.5 |
| 20260830201833 | 100 | 213 | 3.0 | 8.0 | 0.00 | 0.00 | 0.00 | 35 | 1014.6 |
| 20260830201348 | 100 | 235 | 1.0 | 7.0 | 0.00 | 0.00 | 0.00 | 34 | 1014.6 |
| 20260830200821 | 100 | 213 | 3.0 | 7.0 | 0.00 | 0.00 | 0.00 | 35 | 1014.7 |
| 20260830200336 | 100 | 218 | 2.0 | 9.0 | 0.00 | 0.00 | 0.00 | 36 | 1014.7 |
| 20260830195831 | 101 | 234 | 3.0 | 9.0 | 0.00 | 0.00 | 0.00 | 36 | 1014.6 |
| 20260830195325 | 101 | 341 | 1.0 | 7.0 | 0.00 | 0.00 | 0.00 | 36 | 1014.7 |
| 20260830194839 | 100 | 286 | 1.0 | 9.0 | 0.00 | 0.00 | 0.00 | 37 | 1014.9 |
| 20260830194333 | 100 | 196 | 2.0 | 11.0 | 0.00 | 0.00 | 0.00 | 36 | 1015.0 |
| 20260830193832 | 100 | 229 | 5.0 | 11.0 | 0.00 | 0.00 | 0.00 | 36 | 1015.1 |
| 20260830193327 | 100 | 303 | 1.0 | 6.0 | 0.00 | 0.00 | 0.00 | 37 | 1015.0 |
| 20260830192822 | 99 | 160 | 0.0 | 7.0 | 0.00 | 0.00 | 0.00 | 39 | 1014.9 |
| 20260830192317 | 100 | 226 | 3.0 | 8.0 | 0.00 | 0.00 | 0.00 | 36 | 1015.0 |
| 20260830191832 | 100 | 137 | 3.0 | 8.0 | 0.00 | 0.00 | 0.00 | 37 | 1015.1 |
| 20260830191326 | 100 | 222 | 2.0 | 7.0 | 0.00 | 0.00 | 0.00 | 37 | 1015.2 |
| 20260830190820 | 100 | 205 | 2.0 | 5.0 | 0.00 | 0.00 | 0.00 | 38 | 1015.3 |
| 20260830190334 | 99 | 208 | 1.0 | 9.0 | 0.00 | 0.00 | 0.00 | 38 | 1015.3 |
| 20260830185832 | 99 | 134 | 3.0 | 9.0 | 0.00 | 0.00 | 0.00 | 38 | 1015.3 |
| 20260830185327 | 99 | 207 | 3.0 | 6.0 | 0.00 | 0.00 | 0.00 | 38 | 1015.3 |
| 20260830184823 | 99 | 206 | 3.0 | 8.0 | 0.00 | 0.00 | 0.00 | 38 | 1015.4 |
| 20260830184355 | 99 | 223 | 2.0 | 8.0 | 0.00 | 0.00 | 0.00 | 38 | 1015.5 |
| 20260830183829 | 99 | 110 | 1.0 | 6.0 | 0.00 | 0.00 | 0.00 | 40 | 1015.5 |
| 20260830183323 | 98 | 221 | 2.0 | 7.0 | 0.00 | 0.00 | 0.00 | 38 | 1015.6 |
| 20260830182818 | 98 | 222 | 1.0 | 10.0 | 0.00 | 0.00 | 0.00 | 40 | 1015.5 |
| 20260830182352 | 97 | 210 | 3.0 | 10.0 | 0.00 | 0.00 | 0.00 | 40 | 1015.6 |
| 20260830181826 | 97 | 226 | 3.0 | 11.0 | 0.00 | 0.00 | 0.00 | 40 | 1015.6 |
| 20260830181325 | 97 | 227 | 5.0 | 11.0 | 0.00 | 0.00 | 0.00 | 39 | 1015.8 |
| 20260830180819 | 97 | 196 | 3.0 | 8.0 | 0.00 | 0.00 | 0.00 | 40 | 1015.9 |
| 20260830180334 | 97 | 198 | 3.0 | 10.0 | 0.00 | 0.00 | 0.00 | 40 | 1015.8 |
| 20260830175848 | 97 | 239 | 5.0 | 10.0 | 0.00 | 0.00 | 0.00 | 38 | 1015.9 |
| 20260830175323 | 97 | 237 | 1.0 | 8.0 | 0.00 | 0.00 | 0.00 | 40 | 1015.9 |
| 20260830174818 | 97 | 210 | 2.0 | 9.0 | 0.00 | 0.00 | 0.00 | 39 | 1016.0 |
| 20260830174333 | 97 | 206 | 3.0 | 9.0 | 0.00 | 0.00 | 0.00 | 40 | 1016.0 |
| 20260830173830 | 97 | 196 | 0.0 | 13.0 | 0.00 | 0.00 | 0.00 | 41 | 1016.1 |
| 20260830173329 | 96 | 202 | 5.0 | 13.0 | 0.00 | 0.00 | 0.00 | 42 | 1016.2 |
| 20260830172821 | 96 | 204 | 2.0 | 11.0 | 0.00 | 0.00 | 0.00 | 41 | 1016.3 |
| 20260830172317 | 96 | 212 | 1.0 | 9.0 | 0.00 | 0.00 | 0.00 | 41 | 1016.4 |
| 20260830171831 | 95 | 213 | 3.0 | 11.0 | 0.00 | 0.00 | 0.00 | 41 | 1016.4 |
| 20260830171326 | 95 | 217 | 3.0 | 11.0 | 0.00 | 0.00 | 0.00 | 42 | 1016.4 |
| 20260830170840 | 95 | 169 | 3.0 | 10.0 | 0.00 | 0.00 | 0.00 | 41 | 1016.5 |
| 20260830170334 | 95 | 217 | 2.0 | 10.0 | 0.00 | 0.00 | 0.00 | 41 | 1016.6 |
| 20260830165849 | 95 | 207 | 5.0 | 9.0 | 0.00 | 0.00 | 0.00 | 42 | 1016.6 |
| 20260830165322 | 94 | 225 | 3.0 | 10.0 | 0.00 | 0.00 | 0.00 | 42 | 1016.8 |
| 20260830164819 | 94 | 242 | 4.0 | 9.0 | 0.00 | 0.00 | 0.00 | 41 | 1016.8 |
| 20260830164352 | 94 | 220 | 2.0 | 13.0 | 0.00 | 0.00 | 0.00 | 42 | 1016.9 |
| 20260830163825 | 93 | 247 | 5.0 | 13.0 | 0.00 | 0.00 | 0.00 | 42 | 1016.9 |
| 20260830163318 | 93 | 209 | 4.0 | 11.0 | 0.00 | 0.00 | 0.00 | 43 | 1016.8 |
| 20260830162832 | 92 | 227 | 5.0 | 11.0 | 0.00 | 0.00 | 0.00 | 42 | 1016.8 |
| 20260830162327 | 92 | 130 | 5.0 | 11.0 | 0.00 | 0.00 | 0.00 | 43 | 1016.8 |
| 20260830161822 | 92 | 211 | 2.0 | 11.0 | 0.00 | 0.00 | 0.00 | 44 | 1016.8 |
| 20260830161337 | 91 | 172 | 2.0 | 11.0 | 0.00 | 0.00 | 0.00 | 46 | 1016.8 |
| 20260830160832 | 91 | 205 | 5.0 | 11.0 | 0.00 | 0.00 | 0.00 | 46 | 1016.9 |
| 20260830160330 | 90 | 221 | 5.0 | 11.0 | 0.00 | 0.00 | 0.00 | 45 | 1016.8 |
| 20260830155824 | 90 | 205 | 4.0 | 11.0 | 0.00 | 0.00 | 0.00 | 46 | 1016.9 |
| 20260830155319 | 90 | 213 | 4.0 | 10.0 | 0.00 | 0.00 | 0.00 | 46 | 1016.9 |
| 20260830154854 | 89 | 211 | 4.0 | 13.0 | 0.00 | 0.00 | 0.00 | 47 | 1016.9 |
| 20260830154330 | 89 | 77 | 6.0 | 12.0 | 0.00 | 0.00 | 0.00 | 47 | 1016.9 |
| 20260830153824 | 89 | 228 | 6.0 | 12.0 | 0.00 | 0.00 | 0.00 | 47 | 1016.9 |
| 20260830153319 | 88 | 193 | 4.0 | 11.0 | 0.00 | 0.00 | 0.00 | 48 | 1017.0 |
| 20260830152833 | 88 | 203 | 6.0 | 11.0 | 0.00 | 0.00 | 0.00 | 47 | 1017.0 |
| 20260830152333 | 88 | 211 | 3.0 | 10.0 | 0.00 | 0.00 | 0.00 | 48 | 1017.1 |
| 20260830151828 | 88 | 199 | 4.0 | 16.0 | 0.00 | 0.00 | 0.00 | 48 | 1017.1 |
| 20260830151323 | 88 | 115 | 7.0 | 16.0 | 0.00 | 0.00 | 0.00 | 49 | 1017.1 |
| 20260830150817 | 87 | 199 | 3.0 | 7.0 | 0.00 | 0.00 | 0.00 | 48 | 1017.1 |
| 20260830150331 | 87 | 228 | 4.0 | 10.0 | 0.00 | 0.00 | 0.00 | 49 | 1017.2 |
| 20260830145826 | 87 | 165 | 5.0 | 10.0 | 0.00 | 0.00 | 0.00 | 49 | 1017.2 |
| 20260830145321 | 87 | 180 | 5.0 | 11.0 | 0.00 | 0.00 | 0.00 | 49 | 1017.1 |
| 20260830144816 | 87 | 185 | 4.0 | 7.0 | 0.00 | 0.00 | 0.00 | 49 | 1017.0 |
| 20260830144330 | 86 | 96 | 3.0 | 7.0 | 0.00 | 0.00 | 0.00 | 50 | 1017.0 |
| 20260830143829 | 86 | 219 | 4.0 | 8.0 | 0.00 | 0.00 | 0.00 | 51 | 1017.0 |
| 20260830143323 | 85 | 176 | 4.0 | 13.0 | 0.00 | 0.00 | 0.00 | 53 | 1017.0 |
| 20260830142818 | 85 | 155 | 2.0 | 13.0 | 0.00 | 0.00 | 0.00 | 52 | 1016.9 |
| 20260830142334 | 85 | 140 | 3.0 | 10.0 | 0.00 | 0.00 | 0.00 | 54 | 1017.0 |
| 20260830141828 | 84 | 215 | 4.0 | 10.0 | 0.00 | 0.00 | 0.00 | 54 | 1017.1 |
| 20260830141323 | 84 | 154 | 2.0 | 9.0 | 0.00 | 0.00 | 0.00 | 55 | 1017.1 |
| 20260830140818 | 83 | 210 | 3.0 | 5.0 | 0.00 | 0.00 | 0.00 | 55 | 1017.1 |
| 20260830140317 | 83 | 236 | 2.0 | 5.0 | 0.00 | 0.00 | 0.00 | 57 | 1017.1 |
| 20260830135832 | 82 | 177 | 2.0 | 5.0 | 0.00 | 0.00 | 0.00 | 56 | 1017.1 |
| 20260830135326 | 82 | 160 | 3.0 | 6.0 | 0.00 | 0.00 | 0.00 | 57 | 1017.1 |
| 20260830134840 | 82 | 162 | 0.0 | 8.0 | 0.00 | 0.00 | 0.00 | 57 | 1017.0 |
| 20260830134334 | 81 | 180 | 2.0 | 8.0 | 0.00 | 0.00 | 0.00 | 58 | 1017.0 |
| 20260830133829 | 80 | 200 | 0.0 | 6.0 | 0.00 | 0.00 | 0.00 | 60 | 1016.9 |
| 20260830133323 | 79 | 192 | 1.0 | 5.0 | 0.00 | 0.00 | 0.00 | 60 | 1017.0 |
| 20260830132818 | 79 | 174 | 0.0 | 8.0 | 0.00 | 0.00 | 0.00 | 61 | 1016.9 |
| 20260830132338 | 79 | 162 | 2.0 | 7.0 | 0.00 | 0.00 | 0.00 | 61 | 1016.9 |
| 20260830131831 | 78 | 169 | 2.0 | 7.0 | 0.00 | 0.00 | 0.00 | 61 | 1016.9 |
| 20260830131326 | 78 | 103 | 0.0 | 3.0 | 0.00 | 0.00 | 0.00 | 61 | 1016.9 |
| 20260830130841 | 78 | 125 | 1.0 | 3.0 | 0.00 | 0.00 | 0.00 | 62 | 1017.0 |
| 20260830130333 | 78 | 159 | 0.0 | 3.0 | 0.00 | 0.00 | 0.00 | 62 | 1017.0 |
| 20260830125827 | 78 | 157 | 0.0 | 2.0 | 0.00 | 0.00 | 0.00 | 62 | 1016.9 |
| 20260830125320 | 77 | 139 | 0.0 | 4.0 | 0.00 | 0.00 | 0.00 | 63 | 1016.9 |
| 20260830124854 | 77 | 170 | 0.0 | 3.0 | 0.00 | 0.00 | 0.00 | 64 | 1017.0 |